Wetbulb
50.31 50.97 51.19 51.49 51.69 52.20 52.76 53.01 53.15 53.01 53.56 53.70 53.69 53.69 54.23 55.34 56.27 52.43 48.64 53.45 54.42 58.03 58.43 50.95 48.55 47.57 47.36 45.07 46.25 43.85 34.72 31.81 33.93 35.49 36.29 42.42 40.37 43.16 43.28 40.97 41.85 43.43 41.87 42.99 46.02
49.82 50.07 50.59 50.88 51.21 51.93 52.15 52.60 52.73 52.80 53.60 53.73 53.54 53.35 53.95 55.12 50.00 47.05 53.80 55.92 56.54 57.53 50.06 46.65 44.74 45.88 41.66 42.81 43.65 39.51 32.80 34.96 38.24 37.91 37.67 40.47 39.90 39.69 39.82 39.87 40.18 40.81 42.88 44.87 45.28
49.45 49.66 50.02 50.40 51.02 51.55 52.19 52.19 52.58 52.61 53.63 53.76 53.62 53.36 53.67 53.30 45.77 44.72 53.64 54.83 55.63 56.22 49.24 48.03 47.12 44.92 41.04 41.35 40.83 40.11 35.23 39.14 40.52 41.92 41.38 40.02 39.57 40.29 38.03 36.48 36.90 36.97 39.93 42.97 43.25
48.97 49.20 49.55 50.00 50.50 51.42 51.91 52.04 52.45 52.49 53.14 53.74 53.53 53.34 53.82 50.24 36.33 46.16 54.78 56.08 57.33 53.82 48.46 46.68 44.82 40.75 38.29 37.46 40.90 34.87 40.42 39.95 41.99 42.16 40.44 38.03 39.84 37.69 37.58 37.64 40.73 39.29 41.30 41.72 41.72
48.36 48.60 48.97 49.66 50.34 51.26 51.37 51.89 52.49 52.69 53.53 53.75 53.36 53.12 50.39 41.16 40.47 47.76 53.67 52.22 49.49 47.85 45.61 44.11 42.27 41.09 36.55 37.48 38.15 35.34 37.54 40.35 40.76 40.59 38.94 40.37 36.14 35.74 36.42 37.86 39.77 41.81 43.06 41.26 41.67
48.14 48.18 48.77 49.60 50.42 50.94 50.81 51.49 52.12 53.06 53.55 52.94 53.14 53.51 46.35 36.22 47.13 48.08 47.20 48.19 47.42 45.94 44.25 44.20 42.16 42.58 39.35 37.58 35.48 36.95 37.47 37.32 38.96 38.93 38.34 36.25 34.97 36.45 35.60 37.71 39.79 41.12 39.89 39.90 41.01
47.76 48.08 48.37 49.25 50.22 50.25 50.29 51.16 52.03 53.15 53.22 52.98 53.44 50.85 41.00 37.98 45.80 46.47 47.64 45.72 46.79 46.16 43.32 44.64 44.08 41.56 40.00 36.39 39.04 37.23 32.10 34.23 35.12 37.43 36.38 36.56 32.67 33.75 35.66 37.99 38.98 39.06 37.64 39.36 39.67
47.60 47.76 48.51 49.27 49.81 49.60 50.17 50.89 52.01 53.09 53.56 53.56 54.24 47.67 36.93 46.53 43.78 46.48 46.99 45.61 47.27 46.92 45.43 44.88 44.73 41.77 39.11 39.30 36.85 31.70 30.61 26.40 35.00 36.72 36.71 35.83 27.89 35.60 36.60 35.15 35.68 36.59 33.88 37.50 37.72
47.09 47.53 48.25 48.87 49.48 49.25 49.94 50.78 51.88 53.27 54.04 54.40 47.71 42.22 35.25 48.26 43.10 44.74 45.52 43.63 44.69 45.09 43.62 45.83 42.56 37.51 37.10 30.36 26.63 28.88 23.17 25.93 31.51 36.37 35.39 33.18 29.40 35.72 38.08 36.66 35.47 34.17 33.52 36.00 35.46
47.24 47.32 47.82 48.72 49.03 49.03 49.51 50.69 52.33 51.75 52.37 51.70 47.52 36.63 39.91 38.66 42.45 44.37 44.98 45.56 42.28 41.43 41.28 39.30 35.64 29.72 29.69 26.76 21.62 23.45 23.69 27.80 25.81 31.99 33.42 31.19 30.62 33.68 36.19 35.27 34.42 33.15 32.53 33.69 34.10
47.39 47.02 47.60 48.46 48.44 48.56 45.41 45.34 41.57 38.73 41.09 37.07 38.50 38.20 40.38 42.03 44.10 42.80 45.12 43.62 41.83 38.28 30.86 35.75 28.39 24.57 27.69 30.26 30.59 28.60 25.40 23.67 28.34 33.81 30.86 28.73 29.55 31.76 34.13 34.33 33.14 32.40 31.44 32.31 33.11
47.65 46.69 47.45 48.31 47.53 47.19 42.82 39.44 38.03 39.39 33.68 40.84 41.40 41.53 43.65 43.80 37.81 40.79 44.74 37.19 36.16 31.15 33.73 29.80 25.25 33.01 35.17 33.50 30.94 28.01 24.99 24.03 29.37 32.93 31.66 29.92 29.76 33.45 34.42 34.53 33.25 31.67 30.71 31.33 31.86
47.64 46.46 47.14 47.80 46.33 43.00 39.50 38.84 42.78 41.46 33.44 37.83 41.17 40.82 41.24 42.45 37.91 37.74 41.10 37.68 33.08 30.72 30.49 26.44 30.93 35.74 33.74 30.28 29.63 26.92 25.37 25.40 25.93 29.89 30.36 27.61 23.84 28.60 32.66 32.50 32.59 32.25 32.71 32.08 30.74
47.40 46.44 46.91 45.78 40.97 39.38 37.59 42.19 43.36 41.29 26.93 31.96 36.52 38.31 41.67 41.43 35.31 42.00 41.87 37.71 33.56 29.99 30.04 28.96 33.93 32.41 29.67 28.88 30.01 24.23 31.24 30.19 28.86 24.95 19.16 27.68 15.32 24.85 30.23 29.35 29.38 30.42 29.24 29.26 29.75
47.05 46.30 46.37 43.97 37.60 37.48 40.38 43.11 43.07 38.11 14.73 33.66 35.11 43.32 41.14 36.47 36.76 36.83 40.63 37.24 30.77 31.56 29.38 27.32 28.56 28.24 28.19 30.26 32.52 28.20 31.91 29.33 27.91 23.32 21.58 21.44 16.40 21.93 28.46 26.58 27.16 28.01 28.46 28.11 29.16
46.98 46.94 45.99 40.58 38.86 39.14 42.28 41.44 39.45 23.25 15.86 27.17 34.45 34.01 33.63 35.46 35.46 36.95 36.51 38.32 36.25 32.41 30.93 28.79 32.83 30.67 29.64 32.90 32.19 33.35 29.13 27.81 25.89 23.16 7.70 20.64 19.51 19.37 23.64 27.45 27.11 27.43 27.47 29.01 28.37
46.97 46.84 43.23 39.46 35.90 40.88 41.85 36.91 21.12 16.16 28.17 22.80 27.07 32.25 31.03 30.01 31.68 32.87 31.48 28.67 26.34 21.04 22.75 27.24 27.59 30.80 32.96 27.73 31.48 30.14 23.44 7.71 8.31 7.49 9.01 22.06 19.56 22.40 27.42 29.08 29.73 27.61 26.50 26.98 28.18
47.45 44.71 40.92 39.65 40.02 42.02 38.87 26.43 13.84 20.53 21.73 30.13 29.33 29.63 26.84 29.37 29.27 29.97 27.83 24.05 28.61 26.31 21.20 18.91 17.24 26.39 31.27 27.91 25.76 25.90 23.92 10.92 2.30 6.17 12.65 22.67 15.14 22.14 27.67 29.57 29.35 28.91 27.96 27.74 27.39
47.01 38.16 36.89 38.25 42.16 41.03 31.85 14.25 19.56 24.78 28.30 27.39 27.96 23.08 24.46 27.26 27.50 26.89 25.31 24.32 26.39 26.68 19.71 19.10 20.57 27.59 29.84 30.10 29.14 25.37 19.87 26.74 10.83 9.05 9.16 17.47 21.72 26.59 27.78 26.62 26.45 26.37 27.08 26.35 27.09
38.07 36.01 36.04 39.56 41.55 37.60 25.64 22.88 25.81 31.02 30.98 29.36 23.72 23.38 16.18 19.08 23.42 24.54 24.44 26.30 27.09 28.14 28.14 23.85 16.84 25.56 27.25 28.76 28.49 26.14 28.34 15.85 13.24 1.01 -0.13 12.80 17.62 17.97 23.14 25.79 26.18 25.40 25.79 26.72 27.70
37.10 31.87 35.93 40.40 39.29 32.13 19.77 20.66 27.47 31.93 32.47 27.77 24.70 20.72 25.47 20.02 23.72 22.73 24.58 25.60 28.26 27.66 29.41 26.21 21.88 21.61 24.78 22.57 22.43 21.25 18.29 20.89 21.10 18.61 6.03 3.93 13.77 22.37 25.64 25.79 25.82 26.70 27.22 26.97 27.57
35.19 29.12 36.29 38.07 28.27 27.15 20.70 28.16 32.19 28.40 30.59 27.29 28.25 27.07 25.89 24.29 20.91 22.70 23.74 25.23 29.83 28.90 23.80 26.34 23.40 15.29 20.44 23.48 25.56 24.25 23.22 22.30 12.20 11.56 15.77 12.74 16.46 28.43 26.83 26.06 26.94 27.90 30.01 28.44 28.31
32.21 29.71 36.65 35.69 23.11 20.53 23.13 25.93 28.85 27.53 27.45 26.55 25.48 27.59 27.07 22.36 18.78 22.94 23.76 26.92 28.40 26.73 23.63 25.18 15.09 1.97 12.72 18.57 21.67 20.00 21.93 23.00 14.53 12.08 11.61 3.28 13.33 26.94 27.50 24.58 25.79 26.27 28.98 30.95 30.03
31.83 23.66 29.34 31.51 27.76 26.17 23.99 24.68 24.55 28.31 28.12 28.04 26.31 26.82 24.05 19.34 21.69 18.06 22.79 24.46 26.15 26.19 32.18 28.92 16.34 9.76 9.78 16.28 18.11 18.14 20.17 20.76 10.68 -0.92 8.47 13.23 15.32 21.39 23.57 20.45 23.37 25.34 26.58 27.83 30.53
34.20 27.11 26.94 23.26 25.84 26.64 27.66 25.52 23.79 22.48 26.18 27.39 25.05 25.58 23.65 15.63 15.31 14.66 19.84 21.17 23.94 28.11 23.41 20.71 9.95 10.95 13.33 17.95 17.35 18.50 18.11 18.08 11.81 12.50 6.44 14.89 12.34 17.57 20.32 18.53 19.09 23.18 25.00 25.39 27.08
30.98 25.36 25.39 25.52 28.39 27.34 28.31 22.78 23.60 24.27 24.83 23.32 21.83 25.31 23.21 17.97 21.08 15.65 16.68 16.59 19.22 19.27 17.66 18.69 8.15 12.93 5.37 16.53 15.79 13.43 17.03 16.72 17.23 15.78 12.82 14.98 13.87 20.97 21.98 22.05 20.62 21.38 21.42 25.05 24.16
31.67 30.40 31.74 29.20 27.00 24.97 23.68 24.92 25.45 25.53 25.07 25.78 25.36 23.82 23.45 24.03 23.58 23.94 23.92 23.41 21.09 17.07 11.52 11.19 8.45 1.75 1.09 12.95 9.00 3.68 12.36 15.99 12.82 11.43 8.39 3.92 12.50 18.73 15.55 18.16 15.45 17.36 17.86 17.11 17.97
MSLP
1023.45 1023.38 1023.40 1023.25 1023.20 1023.10 1022.70 1022.46 1022.27 1022.02 1021.72 1021.42 1021.04 1020.82 1020.54 1020.13 1019.54 1019.21 1020.27 1020.69 1020.33 1019.68 1019.23 1018.73 1018.10 1017.52 1017.30 1017.60 1017.58 1017.71 1018.78 1019.20 1019.05 1018.86 1019.15 1018.71 1018.64 1018.31 1017.85 1017.93 1017.93 1018.08 1018.30 1018.60 1017.97
1023.52 1023.67 1023.41 1023.38 1023.21 1023.11 1022.77 1022.66 1022.40 1022.12 1021.92 1021.51 1021.12 1020.89 1020.45 1020.16 1019.87 1020.29 1020.88 1020.41 1020.08 1019.58 1019.19 1018.91 1018.49 1017.99 1017.91 1018.06 1018.26 1018.47 1019.29 1019.40 1019.21 1019.28 1019.45 1019.15 1019.25 1019.26 1018.93 1018.83 1018.68 1018.40 1018.15 1017.99 1017.94
1023.71 1023.66 1023.59 1023.51 1023.28 1023.07 1022.82 1022.71 1022.47 1022.13 1021.85 1021.62 1021.38 1021.00 1020.48 1020.10 1020.22 1021.09 1020.69 1020.40 1020.05 1019.63 1019.41 1019.16 1018.62 1018.39 1018.38 1018.49 1018.91 1019.20 1019.39 1019.40 1019.53 1019.33 1019.43 1019.76 1019.84 1019.77 1019.57 1019.38 1019.33 1019.30 1019.10 1018.82 1019.02
1023.90 1023.80 1023.52 1023.43 1023.32 1023.04 1022.92 1022.74 1022.50 1022.17 1021.89 1021.69 1021.45 1021.23 1020.84 1020.33 1021.27 1021.11 1020.78 1020.44 1019.99 1019.58 1019.42 1019.05 1018.86 1018.77 1018.82 1019.03 1019.32 1019.72 1019.71 1019.57 1019.61 1019.87 1020.03 1020.19 1020.06 1020.09 1019.84 1019.59 1019.30 1019.22 1019.13 1019.37 1019.82
1023.99 1023.69 1023.64 1023.43 1023.17 1023.16 1022.88 1022.78 1022.47 1022.15 1021.68 1021.54 1021.47 1021.13 1020.93 1021.01 1021.51 1020.93 1020.71 1020.46 1020.03 1019.86 1019.77 1019.65 1019.47 1019.49 1019.61 1019.53 1019.72 1019.99 1020.17 1020.12 1019.86 1019.84 1019.94 1020.09 1020.26 1020.35 1019.98 1019.57 1019.34 1019.19 1019.23 1019.81 1020.11
1024.13 1023.84 1023.66 1023.59 1023.18 1023.04 1022.96 1022.75 1022.42 1022.08 1021.53 1021.45 1021.41 1021.28 1021.20 1021.50 1021.49 1021.17 1020.89 1020.66 1020.49 1020.38 1020.48 1020.33 1020.39 1020.08 1020.01 1020.08 1020.41 1020.54 1020.33 1020.14 1019.96 1019.84 1019.86 1020.12 1020.38 1020.48 1019.84 1019.60 1019.43 1019.47 1019.77 1020.28 1020.49
1024.03 1023.88 1023.63 1023.52 1023.20 1022.99 1022.90 1022.67 1022.57 1022.03 1021.62 1021.50 1021.21 1021.41 1021.55 1022.15 1021.50 1021.23 1021.01 1020.85 1020.69 1020.77 1020.89 1020.85 1020.78 1020.70 1020.65 1020.80 1020.91 1020.79 1020.75 1020.38 1019.81 1019.82 1020.22 1020.30 1020.41 1020.42 1019.85 1019.71 1019.83 1020.18 1020.41 1020.68 1021.10
1023.89 1023.78 1023.50 1023.42 1023.23 1022.91 1022.71 1022.51 1022.39 1022.10 1021.73 1021.54 1021.35 1021.33 1021.86 1021.80 1021.64 1021.32 1021.27 1021.18 1020.83 1020.69 1021.01 1021.11 1020.80 1021.00 1021.27 1021.42 1021.38 1021.54 1021.51 1021.42 1020.40 1020.15 1020.53 1020.71 1020.76 1020.34 1020.22 1020.16 1020.34 1020.52 1020.90 1021.23 1021.83
1023.86 1023.79 1023.54 1023.16 1023.12 1022.94 1022.60 1022.43 1022.30 1022.09 1021.87 1021.45 1021.55 1021.41 1022.21 1021.95 1021.87 1021.65 1021.49 1021.46 1021.47 1021.25 1020.97 1020.93 1021.23 1021.72 1021.94 1022.35 1022.45 1022.38 1022.48 1022.02 1021.24 1020.82 1020.98 1021.24 1021.00 1020.63 1020.42 1020.58 1020.90 1021.08 1021.47 1021.76 1022.32
1023.71 1023.72 1023.55 1023.29 1023.07 1022.89 1022.59 1022.43 1022.16 1022.02 1021.65 1021.37 1021.31 1022.21 1022.41 1022.30 1022.17 1022.10 1021.72 1021.52 1021.44 1021.57 1021.71 1021.57 1022.10 1022.71 1022.93 1023.29 1023.62 1023.37 1023.29 1022.93 1022.39 1021.77 1021.54 1021.57 1021.21 1021.14 1020.76 1020.97 1021.26 1021.48 1021.92 1022.36 1022.67
1023.51 1023.60 1023.43 1023.16 1023.15 1022.84 1022.76 1022.57 1022.87 1022.82 1022.47 1022.60 1022.44 1022.35 1022.54 1022.57 1022.45 1022.45 1022.30 1022.16 1021.85 1022.01 1022.43 1022.59 1023.11 1023.87 1023.83 1023.57 1024.00 1023.92 1023.72 1023.63 1022.96 1022.19 1022.14 1022.05 1022.08 1021.42 1020.65 1021.00 1021.41 1021.97 1022.68 1023.00 1023.30
1023.52 1023.50 1023.33 1023.20 1022.94 1022.88 1023.03 1023.17 1023.28 1023.32 1023.33 1023.01 1022.56 1022.45 1022.64 1022.73 1022.68 1022.73 1022.68 1022.88 1022.55 1022.76 1022.93 1023.45 1023.78 1023.88 1023.82 1023.97 1023.92 1024.38 1024.28 1024.07 1023.32 1022.87 1023.00 1022.43 1022.31 1021.44 1020.96 1020.91 1021.13 1022.53 1023.16 1023.62 1023.93
1023.35 1023.50 1023.22 1023.20 1023.05 1022.98 1023.05 1023.26 1023.41 1023.17 1023.46 1023.75 1023.21 1022.71 1022.83 1022.95 1022.98 1023.11 1023.17 1022.97 1023.02 1023.12 1023.33 1023.87 1024.29 1023.89 1023.94 1024.21 1024.22 1024.72 1024.98 1024.98 1024.99 1024.28 1023.92 1023.48 1023.01 1022.11 1021.40 1022.02 1022.47 1022.91 1023.34 1023.80 1024.23
1023.11 1023.35 1023.20 1023.14 1023.54 1022.82 1023.29 1023.24 1023.25 1023.35 1023.83 1024.00 1023.68 1023.30 1022.99 1022.73 1023.39 1023.40 1023.46 1023.65 1023.34 1023.56 1023.69 1024.00 1024.27 1024.28 1024.49 1024.54 1024.68 1025.13 1025.30 1025.45 1025.65 1025.83 1025.95 1025.50 1024.72 1023.45 1022.33 1022.78 1023.14 1023.23 1023.49 1023.90 1024.35
1023.01 1023.18 1023.10 1023.39 1023.33 1023.26 1023.30 1023.15 1023.23 1023.48 1024.32 1024.01 1023.77 1023.63 1023.27 1023.40 1023.67 1023.83 1023.71 1023.56 1024.05 1024.03 1024.26 1024.47 1024.36 1024.52 1024.67 1024.80 1024.64 1025.34 1025.65 1025.97 1026.30 1026.82 1027.12 1026.55 1026.13 1023.88 1023.14 1023.25 1023.47 1023.54 1023.78 1024.17 1024.44
1022.64 1023.00 1023.13 1023.21 1023.41 1023.45 1023.09 1023.20 1023.37 1024.32 1024.55 1024.28 1023.91 1023.94 1024.14 1023.93 1023.97 1023.99 1023.90 1024.20 1024.21 1024.79 1024.85 1024.76 1024.53 1024.66 1024.84 1024.92 1025.17 1025.47 1026.03 1026.59 1027.15 1028.07 1028.63 1027.65 1026.96 1025.00 1023.92 1023.37 1023.21 1023.53 1024.08 1024.36 1024.63
1022.48 1022.80 1023.09 1023.08 1023.38 1023.33 1023.34 1023.76 1024.82 1024.85 1024.54 1024.78 1024.33 1024.33 1024.44 1024.67 1024.64 1024.50 1024.46 1024.84 1025.05 1025.36 1025.97 1025.39 1025.31 1025.24 1025.20 1025.39 1025.66 1026.13 1027.19 1028.40 1029.48 1030.04 1029.47 1027.62 1026.89 1024.58 1023.78 1023.51 1023.62 1024.05 1024.68 1024.84 1024.98
1022.30 1022.89 1023.04 1023.12 1023.15 1023.30 1023.74 1024.68 1025.31 1024.37 1024.61 1024.49 1024.49 1024.86 1025.24 1025.16 1025.23 1025.23 1025.32 1025.47 1025.48 1025.63 1026.39 1026.22 1026.19 1026.03 1025.77 1025.94 1026.40 1026.97 1028.08 1029.83 1031.30 1031.78 1029.85 1028.49 1026.62 1024.75 1023.90 1023.91 1023.79 1023.78 1024.70 1025.43 1025.66
1022.07 1023.21 1023.33 1023.53 1023.34 1023.46 1024.18 1025.38 1024.05 1023.67 1023.75 1024.40 1025.09 1025.63 1026.02 1025.92 1025.99 1026.00 1026.16 1026.16 1026.12 1026.06 1026.67 1026.79 1026.88 1026.66 1026.35 1026.42 1026.99 1027.63 1028.59 1029.56 1031.10 1032.16 1031.33 1028.77 1026.46 1024.92 1024.08 1024.26 1024.17 1024.59 1025.14 1025.48 1025.66
1022.29 1023.10 1023.48 1023.48 1023.46 1023.73 1024.65 1024.52 1023.92 1023.44 1023.40 1024.01 1024.82 1025.56 1026.49 1026.65 1026.74 1026.80 1026.78 1026.45 1026.50 1026.69 1026.72 1027.33 1027.71 1027.48 1027.23 1027.18 1027.52 1028.02 1029.08 1030.31 1032.04 1033.25 1032.23 1029.46 1027.36 1025.75 1025.02 1024.68 1024.82 1025.17 1025.35 1025.44 1025.45
1022.11 1022.92 1023.62 1023.57 1023.70 1024.10 1024.38 1024.23 1023.75 1023.29 1023.21 1023.94 1024.55 1025.56 1026.34 1026.99 1027.12 1027.28 1027.07 1027.09 1026.69 1027.10 1027.18 1027.63 1028.43 1028.87 1028.38 1028.21 1028.18 1028.88 1029.73 1031.02 1032.13 1032.96 1032.74 1031.19 1027.39 1025.66 1025.49 1025.78 1025.88 1025.78 1025.60 1025.21 1025.11
1021.52 1023.01 1023.72 1023.74 1024.25 1024.31 1024.31 1023.51 1023.28 1023.58 1023.58 1023.74 1024.04 1025.10 1026.25 1027.13 1027.71 1027.83 1027.55 1027.21 1026.94 1027.34 1028.02 1028.60 1029.51 1030.27 1029.60 1028.96 1028.70 1029.24 1030.08 1031.14 1032.72 1033.12 1032.57 1031.06 1026.93 1026.09 1026.13 1026.26 1026.32 1026.39 1025.90 1025.29 1024.75
1021.07 1022.96 1023.61 1023.79 1023.96 1024.43 1024.10 1023.60 1023.40 1023.66 1023.82 1024.17 1024.58 1024.97 1026.20 1027.24 1028.31 1028.24 1028.20 1028.24 1027.88 1028.12 1028.57 1029.22 1030.78 1031.48 1031.04 1030.59 1029.96 1030.02 1030.45 1031.19 1032.74 1033.42 1032.74 1032.13 1028.53 1026.47 1026.58 1026.98 1027.39 1027.33 1026.76 1026.31 1026.05
1020.44 1022.78 1023.69 1023.88 1023.28 1022.89 1023.25 1023.54 1023.71 1023.62 1023.72 1024.03 1024.93 1025.46 1026.57 1027.89 1028.54 1028.95 1029.17 1029.18 1028.91 1029.17 1029.42 1029.90 1031.64 1032.57 1032.39 1031.36 1031.28 1031.22 1031.21 1031.87 1033.20 1033.90 1033.09 1031.42 1029.29 1028.04 1027.93 1028.34 1028.09 1027.78 1027.42 1026.98 1026.39
1018.48 1019.76 1020.02 1021.99 1022.58 1022.52 1022.15 1022.65 1023.28 1023.86 1023.96 1024.27 1025.20 1025.39 1026.09 1028.32 1029.26 1029.74 1029.84 1030.23 1030.26 1030.27 1030.99 1031.88 1033.20 1033.97 1033.32 1032.45 1032.12 1031.64 1031.40 1031.89 1033.04 1032.79 1033.52 1031.06 1030.73 1029.52 1029.25 1029.36 1028.65 1028.21 1027.89 1027.49 1027.09
1017.15 1018.46 1019.44 1019.90 1020.49 1021.95 1021.92 1022.35 1022.31 1023.27 1023.45 1024.32 1024.91 1025.39 1026.26 1027.29 1027.46 1028.71 1029.28 1030.32 1030.67 1031.84 1032.65 1033.50 1034.61 1035.41 1035.09 1033.81 1033.08 1032.21 1031.45 1031.39 1031.94 1032.32 1032.27 1031.71 1030.97 1030.12 1029.65 1029.26 1029.21 1028.84 1028.58 1028.31 1028.19
1016.12 1016.56 1016.66 1019.26 1020.25 1021.27 1020.43 1020.72 1021.45 1022.14 1023.54 1023.51 1024.14 1025.44 1026.63 1027.07 1027.62 1027.93 1028.76 1029.49 1030.54 1032.08 1033.88 1035.00 1036.25 1037.28 1036.89 1035.57 1034.28 1032.52 1030.52 1030.54 1031.01 1031.36 1031.86 1032.14 1031.33 1030.72 1030.59 1030.11 1030.12 1029.81 1029.60 1029.45 1029.38
Wind_Speed
5 7 7 8 9 10 11 11 11 10 10 9 9 9 11 13 12 4 7 5 7 15 14 8 6 5 4 2 4 4 5 3 3 4 2 7 5 7 3 4 4 5 6 4 9
5 6 6 7 8 10 10 10 10 10 10 9 8 9 9 12 5 9 5 9 10 13 8 8 8 8 3 2 4 4 4 3 2 3 3 5 7 7 5 7 6 7 8 11 11
3 5 6 7 8 9 10 10 10 9 10 9 8 8 9 7 4 4 9 10 11 10 5 5 5 3 4 3 4 5 3 2 4 4 5 6 8 6 6 4 2 2 5 9 9
3 5 6 7 8 9 11 10 10 9 10 10 9 9 10 2 2 3 9 11 12 9 5 4 4 3 2 4 3 3 4 3 3 3 3 4 5 8 4 5 3 3 3 4 8
3 4 6 7 8 10 9 10 9 8 9 9 8 8 4 6 3 4 8 10 7 7 6 5 6 4 3 3 3 1 4 5 6 6 3 4 4 5 9 6 2 4 6 6 7
3 4 6 8 9 10 10 10 9 9 7 6 7 9 1 5 5 5 5 6 7 6 7 8 3 2 2 3 3 3 4 7 6 5 3 3 4 4 2 1 5 5 4 6 8
3 5 6 7 9 10 10 9 9 8 6 5 6 4 7 3 3 4 3 1 5 4 3 4 5 5 3 2 4 3 4 7 5 5 3 2 6 5 4 2 4 6 5 7 9
3 4 6 8 10 10 10 9 8 7 6 6 8 3 4 3 3 5 6 3 6 4 3 4 5 3 3 3 3 2 3 6 5 6 2 6 7 5 3 1 3 4 4 7 8
2 4 6 7 10 11 9 8 7 7 8 8 4 2 3 3 3 5 5 3 3 3 2 2 3 2 3 3 5 5 1 2 5 0 2 2 7 6 4 5 7 5 4 7 7
3 4 6 8 9 10 8 5 7 6 5 5 2 4 3 2 2 4 3 3 1 2 4 3 5 4 5 5 2 1 3 5 4 3 3 6 12 7 8 5 9 5 5 7 8
4 3 5 7 10 8 5 3 4 5 8 3 2 5 2 1 1 4 4 5 2 2 3 4 6 3 3 3 2 2 1 3 6 8 5 5 8 12 8 8 6 5 5 7 8
5 4 5 8 8 6 1 2 2 2 6 3 1 4 3 2 2 3 6 3 2 3 2 6 3 1 0 3 5 3 3 6 8 4 7 10 16 18 12 9 6 8 7 7 6
5 4 4 8 6 2 1 4 0 1 4 3 2 4 1 3 3 2 5 3 2 1 3 4 1 3 3 3 4 3 3 4 5 6 5 8 7 6 4 8 8 6 7 6 7
7 4 4 6 2 2 1 3 1 1 5 1 1 2 1 1 3 2 4 1 1 2 2 2 2 3 3 2 1 2 4 4 6 7 2 6 8 6 6 5 4 5 6 6 7
8 4 2 4 2 1 3 2 1 3 4 3 1 2 2 3 6 4 2 3 2 1 4 2 3 3 2 2 2 2 3 4 3 2 4 6 3 9 3 2 4 6 6 6 7
10 6 1 2 1 1 2 1 3 9 7 2 3 3 2 1 2 2 2 1 1 3 1 2 2 3 1 2 2 3 3 5 1 3 4 5 4 6 3 4 3 3 5 7 7
11 7 2 0 3 3 2 3 8 5 4 3 4 5 2 3 2 2 3 1 3 5 2 1 0 2 2 2 3 5 5 5 8 6 6 4 3 8 4 5 4 5 5 5 6
12 7 3 2 1 3 2 8 4 3 5 3 4 4 4 3 2 2 3 1 3 5 1 3 5 1 1 2 3 1 5 6 5 3 8 2 7 5 0 4 5 2 5 3 5
15 2 3 1 1 2 6 4 10 7 7 9 5 5 1 2 4 3 3 3 2 2 6 3 1 2 3 2 3 3 1 3 3 0 4 5 6 5 4 3 3 3 4 4 4
4 3 3 1 1 3 6 6 4 3 7 3 5 3 6 4 5 5 5 1 4 2 2 2 2 1 1 2 2 3 1 4 4 2 6 6 10 6 5 7 6 5 6 6 5
4 4 1 1 1 5 6 7 3 2 2 5 5 4 3 7 7 4 6 1 3 3 4 3 4 3 1 3 5 3 3 1 3 4 5 3 8 2 6 6 7 8 8 9 8
4 4 1 1 3 2 4 6 5 4 3 2 3 5 5 4 4 5 7 1 4 5 7 0 4 2 7 1 4 4 5 5 5 6 5 4 19 9 5 4 7 9 9 8 7
7 4 1 2 6 4 2 4 3 5 5 5 3 3 2 6 4 2 4 4 5 3 6 5 1 4 10 6 4 3 4 3 3 3 7 3 12 6 14 9 8 9 12 10 8
6 5 1 1 2 6 7 4 5 1 4 4 5 4 5 4 4 4 3 2 3 3 4 4 3 8 8 7 4 4 1 2 6 3 7 14 20 20 20 10 12 13 10 12 12
4 6 7 10 9 3 6 10 8 7 1 4 2 4 8 5 3 3 3 2 5 2 4 5 5 3 6 5 2 5 8 8 8 11 6 20 13 18 16 10 10 6 7 8 8
7 6 0 4 13 9 9 9 12 5 9 6 5 10 5 8 9 11 9 4 6 3 3 3 2 3 5 5 1 4 9 12 12 10 9 13 14 7 8 7 6 9 6 6 4
2 1 6 10 9 12 9 8 11 13 3 3 9 7 6 6 5 5 5 6 8 9 4 5 5 4 7 4 3 8 7 5 5 5 7 2 8 6 10 12 9 9 6 5 5
Wind_Direction
29 23 13 5 358 347 349 352 346 348 347 353 352 337 330 335 313 29 45 330 325 321 320 278 297 328 342 32 357 38 61 20 17 55 334 6 23 339 295 16 327 37 59 283 344
23 18 13 2 359 345 349 347 343 347 342 342 341 331 334 344 88 58 318 336 329 326 346 359 353 344 32 45 2 71 85 57 4 63 1 1 23 335 15 341 341 345 1 18 24
18 13 12 0 353 346 350 344 338 337 332 338 330 329 329 335 82 5 337 337 328 321 306 306 297 333 59 35 29 336 100 29 37 85 50 349 336 321 3 328 144 8 355 12 24
8 2 15 357 349 348 347 338 338 333 326 327 323 328 329 333 119 327 333 324 318 305 310 319 326 8 75 79 43 45 11 87 351 69 44 319 298 324 272 259 105 10 47 43 33
358 4 358 351 347 344 342 332 333 330 329 324 321 333 327 52 73 339 352 330 334 338 13 357 37 14 54 65 32 46 355 347 342 303 234 247 270 252 276 284 360 353 41 38 39
351 351 350 342 344 343 335 326 321 325 346 347 334 334 331 78 290 340 342 8 2 12 29 26 27 338 39 79 85 270 327 289 275 255 260 272 275 10 247 140 21 358 26 53 42
320 339 340 339 339 339 331 325 317 323 343 338 337 325 48 152 317 327 359 345 358 22 74 6 346 44 350 58 311 300 327 320 251 210 209 77 326 235 265 81 32 357 36 52 51
289 327 337 338 336 334 326 322 314 313 320 315 327 347 82 309 314 16 340 19 34 30 71 326 344 66 51 307 324 320 31 359 327 112 107 88 276 313 248 57 285 299 60 62 55
266 312 328 339 334 331 328 317 300 303 301 297 341 81 50 325 36 321 31 53 338 11 347 307 19 91 19 52 17 7 311 274 328 182 139 168 270 276 254 267 261 286 83 74 56
242 309 324 334 332 326 324 298 307 317 271 266 273 41 336 93 31 325 329 348 30 352 1 32 38 56 23 60 197 351 3 337 317 314 274 253 270 276 286 253 245 244 97 79 70
229 288 314 331 328 331 355 10 33 14 37 64 4 106 77 65 22 32 353 337 326 27 68 8 64 57 67 85 92 61 22 263 261 277 307 252 277 289 271 288 219 228 81 68 63
238 272 313 326 325 326 31 68 131 153 95 351 53 72 68 360 103 18 2 13 25 68 62 25 88 315 131 73 65 28 320 302 296 336 350 306 297 280 287 274 180 123 82 68 49
225 254 308 326 320 7 115 125 336 28 88 21 352 93 118 10 58 33 18 346 55 43 144 137 354 83 62 8 23 321 288 312 273 333 325 331 319 341 350 66 63 76 97 82 79
207 243 301 329 316 175 102 145 251 329 74 196 240 353 220 309 71 357 11 61 30 109 53 126 83 60 22 321 151 313 344 352 353 24 297 58 286 314 302 87 89 124 118 114 91
200 222 282 306 274 135 158 151 279 57 23 143 115 293 347 104 135 9 321 13 48 42 85 192 108 76 31 346 46 211 321 287 254 297 11 321 55 275 340 28 201 209 151 133 119
189 188 256 298 81 205 128 65 63 46 263 135 118 142 101 27 66 140 67 14 113 33 13 224 143 114 41 37 28 332 336 321 63 81 34 258 143 280 284 275 283 202 173 151 136
182 175 175 297 210 193 90 65 47 138 350 246 169 152 178 157 122 164 137 164 137 80 355 92 118 89 51 54 13 46 43 343 359 6 227 212 348 243 237 293 324 242 193 172 136
164 151 45 70 185 128 82 53 111 219 208 199 126 126 150 137 102 142 113 295 231 95 82 132 330 14 303 80 167 201 133 150 231 273 275 256 248 266 181 338 358 115 163 156 117
148 115 116 301 316 82 83 85 203 201 158 146 67 100 235 112 123 116 207 173 77 103 154 145 232 333 48 358 88 304 94 191 106 328 26 257 311 320 328 347 6 110 121 188 188
130 147 141 204 19 83 82 230 200 152 125 131 142 141 162 204 139 158 199 239 147 66 121 180 61 261 305 347 12 108 255 35 0 352 296 290 306 255 326 303 294 286 240 240 232
114 130 213 196 107 56 170 214 181 109 111 145 174 126 143 167 164 189 190 322 127 137 64 125 116 285 55 206 175 30 22 12 174 169 199 270 272 200 25 28 347 302 266 235 214
145 144 223 108 110 183 166 176 143 149 43 130 105 112 144 154 138 190 196 109 144 141 143 101 137 175 228 47 88 110 164 156 142 256 229 211 274 295 63 1 357 323 315 272 216
129 113 13 350 168 212 287 129 144 138 177 161 117 108 114 150 102 152 106 351 51 107 149 187 303 32 345 356 5 147 203 198 107 76 243 204 270 280 331 352 348 341 331 329 316
131 121 151 243 241 157 146 171 149 43 140 119 122 94 101 71 28 160 122 33 42 70 86 93 97 156 190 209 127 205 271 291 132 128 268 256 284 297 311 323 314 308 311 311 300
172 194 179 180 213 184 150 156 143 165 152 135 77 197 152 121 64 150 93 89 24 108 45 109 181 156 264 262 190 219 252 250 204 235 202 276 285 289 294 292 282 268 307 319 315
145 147 176 140 143 153 188 204 165 167 148 200 171 185 145 152 181 187 137 175 181 15 104 10 229 84 300 304 101 259 248 247 252 257 259 265 272 267 285 293 290 287 293 307 320
173 1 119 151 139 172 201 170 176 132 235 196 164 124 153 174 144 112 93 108 141 140 140 121 122 79 270 331 325 317 232 197 215 205 177 230 250 330 330 325 315 319 293 288 307